Find Starlink 3672

NORAD ID: 51974 Int'l Des: 2022-025 Owner: SPXS Country: US Constellation: starlink operational
LEOCIRCULARSTARLINK_TYPE

Live Position

Loading 3D Globe...

About Starlink 3672

Description loading...

Upcoming Passes

Passes for default location (London). Set your location on the main map for personalized predictions.

Altitude History

Loading altitude history...

Two-Line Element Set

1 51974U 22025U 26126.28501301 .00004270 00000-0 15616-3 0 9999
2 51974 53.1616 129.1892 0001161 86.4593 273.6540 15.30206647229640
Epoch: May 6, 2026 • Age: 16 hours

Current Status

Altitude 481.0 km
Velocity 7.63 km/s
Sub-Earth Point 53.30°N, 6.13°E
Launch Date Mar 9, 2022
Age 4.1 years
Type internet

Technical Details

Classification Payload
Mass 297.00 kg
Dry Mass 275.00 kg
Total Mass 297.00 kg
Length 0.20 m
Diameter 2.80 m
Span 9.00 m
Shape Box + pan
Manufacturer SPXS
Bus Type Starlink
Phase Status In Orbit
Owner/State SPXS/US

Most Searched